DW8751 Weather Reports


time (UTC)temp
C
wind
direction
speed
KPH
gust
KPH
rain 1hr
cm
rain 24hr
cm
rain mn
cm
humidity
%
barometer
mb
20260510213104 7 281 8.0 16.1 0.00 0.00 0.00 76 1013.2
20260510212604 7 289 8.0 12.9 0.00 0.00 0.00 75 1013.2
20260510212104 7 288 8.0 12.9 0.00 0.00 0.00 75 1013.2
20260510211604 7 281 8.0 12.9 0.00 0.00 0.00 74 1013.2
20260510211104 7 286 8.0 12.9 0.00 0.00 0.00 73 1013.2
20260510210604 7 297 8.0 11.3 0.00 0.00 0.00 73 1013.2
20260510210104 7 302 8.0 12.9 0.00 0.00 0.00 73 1013.2
20260510205604 7 298 8.0 11.3 0.00 0.00 0.00 73 1013.2
20260510205104 7 302 8.0 12.9 0.00 0.00 0.00 73 1013.2
20260510204604 7 297 6.4 11.3 0.00 0.00 0.00 73 1013.2
20260510204104 8 299 8.0 11.3 0.00 0.00 0.00 74 1013.2
20260510203604 8 297 6.4 9.7 0.00 0.00 0.00 74 1013.2
20260510203104 8 299 4.8 9.7 0.00 0.00 0.00 74 1013.2
20260510202604 8 299 6.4 11.3 0.00 0.00 0.00 74 1013.2
20260510202104 8 297 4.8 9.7 0.00 0.00 0.00 74 1013.2
20260510201604 8 298 4.8 11.3 0.00 0.00 0.00 74 1013.2
20260510201104 8 304 4.8 8.0 0.00 0.00 0.00 73 1013.2
20260510200603 8 307 4.8 9.7 0.00 0.00 0.00 74 1013.2
20260510200105 8 307 4.8 9.7 0.00 0.00 0.00 73 1013.2
20260510195604 8 308 4.8 11.3 0.00 0.00 0.00 73 1013.2
20260510195104 8 298 8.0 11.3 0.00 0.00 0.00 72 1013.2
20260510194604 9 307 4.8 14.5 0.00 0.00 0.00 71 1013.2
20260510194104 9 310 4.8 9.7 0.00 0.00 0.00 70 1013.2
20260510193604 9 307 8.0 12.9 0.00 0.00 0.00 69 1013.2
20260510193104 9 315 8.0 11.3 0.00 0.00 0.00 69 1013.2
20260510192604 9 314 6.4 14.5 0.00 0.00 0.00 69 1013.2
20260510192104 9 303 8.0 12.9 0.00 0.00 0.00 68 1013.2
20260510191104 10 315 4.8 11.3 0.00 0.00 0.00 68 1013.2
20260510190604 10 337 9.7 12.9 0.00 0.00 0.00 67 1013.2
20260510190104 10 312 9.7 16.1 0.00 0.00 0.00 67 1013.2
20260510185104 10 333 4.8 16.1 0.00 0.00 0.00 67 1013.2
20260510184604 10 325 8.0 19.3 0.00 0.00 0.00 66 1013.2
20260510184104 10 345 9.7 19.3 0.00 0.00 0.00 66 1013.2
20260510183604 10 344 9.7 14.5 0.00 0.00 0.00 66 1013.2
20260510183104 10 330 9.7 16.1 0.00 0.00 0.00 67 1013.2
20260510182604 10 341 9.7 19.3 0.00 0.00 0.00 66 1013.2
20260510182104 9 324 9.7 19.3 0.00 0.00 0.00 65 1013.2
20260510181104 10 337 12.9 20.9 0.00 0.00 0.00 60 1013.2
20260510180604 10 325 9.7 16.1 0.00 0.00 0.00 62 1013.2
20260510180104 10 344 9.7 19.3 0.00 0.00 0.00 61 1013.2
20260510175604 10 329 12.9 19.3 0.00 0.00 0.00 62 1013.2
20260510175104 10 329 14.5 24.1 0.00 0.00 0.00 61 1013.2
20260510174604 10 337 9.7 20.9 0.00 0.00 0.00 60 1013.2
20260510174104 10 329 11.3 22.5 0.00 0.00 0.00 61 1013.2
20260510173104 10 334 8.0 19.3 0.00 0.00 0.00 60 1013.2
20260510172603 10 337 14.5 20.9 0.00 0.00 0.00 59 1013.2
20260510172104 10 340 11.3 22.5 0.00 0.00 0.00 59 1013.2
20260510171605 10 332 12.9 19.3 0.00 0.00 0.00 58 1013.2
20260510170604 10 353 11.3 20.9 0.00 0.00 0.00 59 1013.2
20260510170104 10 341 14.5 20.9 0.00 0.00 0.00 57 1013.2
20260510165104 10 348 14.5 20.9 0.00 0.00 0.00 57 1013.2
20260510164104 10 353 11.3 24.1 0.00 0.00 0.00 59 1013.2
20260510163604 10 339 14.5 29.0 0.00 0.00 0.00 61 1013.2
20260510162604 11 339 9.7 19.3 0.00 0.00 0.00 63 1013.2
20260510161604 10 6 14.5 27.4 0.00 0.00 0.00 60 1013.2
20260510161104 10 345 14.5 25.7 0.00 0.00 0.00 64 1013.2
20260510160604 10 329 12.9 22.5 0.00 0.00 0.00 65 1013.2
20260510160104 10 333 17.7 24.1 0.00 0.00 0.00 65 1013.2
20260510155604 10 314 11.3 19.3 0.00 0.00 0.00 66 1013.2
20260510155104 10 2 12.9 19.3 0.00 0.00 0.00 65 1013.2
20260510154604 10 353 11.3 22.5 0.00 0.00 0.00 67 1013.2
20260510153604 10 3 9.7 19.3 0.00 0.00 0.00 66 1013.2
20260510153104 10 354 9.7 19.3 0.00 0.00 0.00 67 1013.2
20260510152604 10 10 9.7 19.3 0.00 0.00 0.00 67 1013.2
20260510152104 10 352 9.7 19.3 0.00 0.00 0.00 66 1013.2
20260510151604 10 355 8.0 19.3 0.00 0.00 0.00 66 1013.2
20260510151104 10 348 14.5 20.9 0.00 0.00 0.00 67 1013.2
20260510150104 10 354 11.3 27.4 0.00 0.00 0.00 68 1013.2
20260510145604 10 341 12.9 20.9 0.00 0.00 0.00 69 1013.2
20260510145104 10 349 16.1 24.1 0.00 0.00 0.00 67 1013.2
20260510144603 10 340 12.9 22.5 0.00 0.00 0.00 68 1013.2
20260510144103 10 356 12.9 20.9 0.00 0.00 0.00 67 1013.2
20260510143104 10 3 11.3 20.9 0.00 0.00 0.00 68 1013.2
20260510142604 10 10 11.3 24.1 0.00 0.00 0.00 69 1013.2
20260510142104 10 8 14.5 20.9 0.00 0.00 0.00 68 1013.2
20260510141604 10 31 8.0 14.5 0.00 0.00 0.00 70 1013.2
20260510141104 10 350 11.3 19.3 0.00 0.00 0.00 70 1013.2
20260510140603 10 352 11.3 19.3 0.00 0.00 0.00 70 1013.2
20260510140104 10 22 8.0 16.1 0.00 0.00 0.00 71 1013.2
20260510135604 10 10 11.3 19.3 0.00 0.00 0.00 72 1013.2
20260510135104 10 334 11.3 19.3 0.00 0.00 0.00 73 1013.2
20260510134104 10 358 8.0 20.9 0.00 0.00 0.00 74 1013.2
20260510133603 10 24 8.0 19.3 0.00 0.00 0.00 75 1013.2
20260510133104 10 3 12.9 22.5 0.00 0.00 0.00 74 1013.2
20260510132603 10 348 11.3 20.9 0.00 0.00 0.00 75 1013.2
20260510132104 10 9 9.7 19.3 0.00 0.00 0.00 74 1013.2
20260510131604 10 1 11.3 19.3 0.00 0.00 0.00 74 1013.2
20260510130604 10 343 9.7 20.9 0.00 0.00 0.00 73 1013.2
20260510130105 10 23 8.0 16.1 0.00 0.00 0.00 74 1013.2
20260510125604 10 19 8.0 16.1 0.00 0.00 0.00 73 1013.2
20260510124604 10 5 9.7 19.3 0.00 0.00 0.00 73 1013.2
20260510124104 9 32 8.0 12.9 0.00 0.00 0.00 73 1013.2
20260510123604 9 20 9.7 16.1 0.00 0.00 0.00 74 1013.2
20260510123104 9 19 9.7 16.1 0.00 0.00 0.00 75 1013.2
20260510122603 9 6 9.7 16.1 0.00 0.00 0.00 75 1013.2
20260510122104 9 17 11.3 20.9 0.00 0.00 0.00 74 1013.2
20260510121604 9 352 9.7 19.3 0.00 0.00 0.00 74 1013.2
20260510121104 9 6 11.3 19.3 0.00 0.00 0.00 73 1013.2
20260510120604 9 9 8.0 19.3 0.00 0.00 0.00 74 1013.2
20260510120104 9 21 9.7 16.1 0.00 0.00 0.00 74 1013.2
20260510115604 9 14 9.7 16.1 0.00 0.00 0.00 76 1013.2
20260510115104 9 32 8.0 19.3 0.00 0.00 0.00 75 1013.2
20260510114103 9 20 9.7 19.3 0.00 0.00 0.00 75 1013.2
20260510113604 9 21 9.7 19.3 0.00 0.00 0.00 76 1013.2
20260510113104 8 18 9.7 16.1 0.00 0.00 0.00 76 1013.2
20260510112604 8 28 11.3 20.9 0.00 0.00 0.00 76 1013.2
20260510112104 8 41 11.3 16.1 0.00 0.00 0.00 77 1013.2
20260510111604 8 40 11.3 16.1 0.00 0.00 0.00 76 1013.2
20260510111104 8 21 9.7 22.5 0.00 0.00 0.00 77 1013.2
20260510110604 8 54 12.9 19.3 0.00 0.00 0.00 77 1013.2
20260510110104 8 58 9.7 19.3 0.00 0.00 0.00 76 1013.2
20260510105604 8 65 9.7 16.1 0.00 0.00 0.00 77 1013.2
20260510105104 8 27 9.7 19.3 0.00 0.00 0.00 77 1013.2
20260510104604 8 42 11.3 19.3 0.00 0.00 0.00 77 1013.2
20260510104104 8 47 8.0 14.5 0.00 0.00 0.00 77 1013.2
20260510102604 8 43 11.3 20.9 0.00 0.00 0.00 76 1013.2
20260510102104 9 56 8.0 14.5 0.00 0.00 0.00 76 1013.2
20260510101603 8 78 14.5 22.5 0.00 0.00 0.00 75 1013.2
20260510101104 8 48 8.0 19.3 0.00 0.00 0.00 77 1013.2
20260510100604 8 37 11.3 20.9 0.00 0.00 0.00 75 1013.2
20260510100105 8 50 11.3 19.3 0.00 0.00 0.00 76 1013.2
20260510095604 8 55 9.7 19.3 0.00 0.00 0.00 75 1013.2
20260510095104 8 42 9.7 19.3 0.00 0.00 0.00 76 1013.2
20260510094604 8 44 11.3 19.3 0.00 0.00 0.00 76 1013.2
20260510094104 8 67 12.9 22.5 0.00 0.00 0.00 76 1013.2
20260510093604 8 46 11.3 22.5 0.00 0.00 0.00 77 1013.2
20260510093104 8 68 11.3 19.3 0.00 0.00 0.00 77 1013.2
20260510092604 8 64 12.9 20.9 0.00 0.00 0.00 76 1013.2
20260510092104 8 36 14.5 20.9 0.00 0.00 0.00 76 1013.2
20260510091604 8 61 11.3 19.3 0.00 0.00 0.00 76 1013.2
20260510091104 8 80 11.3 24.1 0.00 0.00 0.00 78 1013.2
20260510090604 8 61 9.7 19.3 0.00 0.00 0.00 79 1013.2
20260510085604 7 57 11.3 29.0 0.00 0.00 0.00 79 1013.2
20260510085104 7 72 14.5 22.5 0.00 0.00 0.00 78 1013.2
20260510084604 8 67 11.3 20.9 0.00 0.00 0.00 78 1013.2
20260510084104 7 52 11.3 22.5 0.00 0.00 0.00 78 1013.2
20260510083604 7 71 9.7 20.9 0.00 0.00 0.00 79 1013.2
20260510083104 7 70 14.5 22.5 0.00 0.00 0.00 79 1013.2
20260510082104 7 65 11.3 22.5 0.00 0.00 0.00 79 1013.2
20260510081604 7 72 16.1 20.9 0.00 0.00 0.00 79 1013.2
20260510081105 7 72 9.7 24.1 0.00 0.00 0.00 80 1013.2
20260510080604 7 75 16.1 25.7 0.00 0.00 0.00 79 1013.2
20260510080104 7 77 14.5 24.1 0.00 0.00 0.00 80 1013.2
20260510075104 7 89 14.5 24.1 0.00 0.00 0.00 80 1013.2
20260510074603 7 81 14.5 25.7 0.00 0.00 0.00 80 1013.2
20260510074104 7 84 19.3 32.2 0.00 0.00 0.00 80 1013.2
20260510073604 6 85 19.3 32.2 0.00 0.00 0.00 80 1013.2
20260510073104 7 76 16.1 29.0 0.00 0.00 0.00 80 1013.2
20260510071604 7 79 16.1 32.2 0.00 0.00 0.00 80 1013.2
20260510070604 6 79 14.5 25.7 0.00 0.00 0.00 81 1013.2
20260510070105 6 78 19.3 27.4 0.00 0.00 0.00 81 1013.2
20260510065604 6 74 16.1 25.7 0.00 0.00 0.00 81 1013.2
20260510065104 6 75 14.5 22.5 0.00 0.00 0.00 82 1013.2
20260510064604 6 86 11.3 20.9 0.00 0.00 0.00 82 1013.2
20260510064104 6 87 12.9 20.9 0.00 0.00 0.00 82 1013.2
20260510063604 6 91 16.1 27.4 0.00 0.00 0.00 83 1013.2
20260510063104 6 84 16.1 22.5 0.00 0.00 0.00 83 1013.2
20260510062604 6 92 9.7 20.9 0.00 0.00 0.00 83 1013.2
20260510062104 6 86 12.9 22.5 0.00 0.00 0.00 83 1013.2
20260510061604 6 84 11.3 16.1 0.00 0.00 0.00 84 1013.2
20260510060604 6 82 11.3 20.9 0.00 0.00 0.00 85 1013.2
20260510060104 6 83 11.3 20.9 0.00 0.00 0.00 85 1013.2
20260510055604 6 92 14.5 20.9 0.00 0.00 0.00 85 1013.2
20260510055104 6 95 12.9 20.9 0.00 0.00 0.00 85 1013.2
20260510054604 6 95 14.5 22.5 0.00 0.00 0.00 85 1013.2
20260510054103 6 83 12.9 19.3 0.00 0.00 0.00 85 1013.2
20260510053604 6 95 11.3 19.3 0.00 0.00 0.00 85 1013.2
20260510053104 6 98 12.9 22.5 0.00 0.00 0.00 85 1013.2
20260510052604 6 89 14.5 22.5 0.00 0.00 0.00 84 1013.2
20260510052104 6 95 14.5 25.7 0.00 0.00 0.00 84 1013.2
20260510051104 6 86 16.1 25.7 0.00 0.00 0.00 84 1013.2
20260510050605 6 91 16.1 24.1 0.00 0.00 0.00 84 1013.2
20260510050103 6 88 17.7 24.1 0.00 0.00 0.00 84 1013.2
20260510045604 6 84 16.1 24.1 0.00 0.00 0.00 84 1013.2
20260510045104 6 87 14.5 22.5 0.00 0.00 0.00 84 1013.2
20260510044604 6 92 14.5 25.7 0.00 0.00 0.00 84 1013.2
20260510044104 6 92 19.3 27.4 0.00 0.00 0.00 83 1013.2
20260510043104 6 97 16.1 24.1 0.00 0.00 0.00 84 1013.2
20260510042603 6 96 16.1 27.4 0.00 0.00 0.00 84 1013.2
20260510042104 6 92 14.5 24.1 0.00 0.00 0.00 84 1013.2
20260510041604 6 92 14.5 29.0 0.00 0.00 0.00 83 1013.2
20260510041104 6 93 16.1 27.4 0.00 0.00 0.00 84 1013.2
20260510040104 6 84 16.1 27.4 0.00 0.00 0.00 84 1013.2
20260510035604 6 89 12.9 22.5 0.00 0.00 0.00 84 1013.2
20260510035104 6 89 16.1 29.0 0.00 0.00 0.00 84 1013.2
20260510034604 6 101 12.9 24.1 0.00 0.00 0.00 86 1013.2
20260510034104 6 93 11.3 24.1 0.00 0.00 0.00 87 1013.2
20260510033105 6 92 9.7 14.5 0.00 0.00 0.00 87 1013.2
20260510032604 6 97 9.7 14.5 0.00 0.03 0.00 88 1013.2
20260510032104 6 95 9.7 14.5 0.00 0.03 0.00 88 1013.2
20260510031604 6 93 9.7 12.9 0.00 0.03 0.00 88 1013.2
20260510031104 6 81 9.7 14.5 0.00 0.03 0.00 87 1013.2
20260510030604 6 88 8.0 19.3 0.00 0.03 0.00 87 1013.2
20260510030104 6 91 9.7 14.5 0.00 0.03 0.00 87 1013.2
20260510025604 7 92 6.4 12.9 0.00 0.03 0.00 87 1013.2
20260510025104 7 99 8.0 12.9 0.00 0.03 0.00 87 1013.2
20260510024604 7 106 9.7 19.3 0.00 0.03 0.00 87 1013.2
20260510024104 7 92 9.7 16.1 0.00 0.03 0.00 86 1013.2
20260510023604 7 90 8.0 14.5 0.00 0.03 0.00 86 1013.2
20260510023104 7 94 9.7 19.3 0.00 0.03 0.00 85 1013.2
20260510022604 7 79 14.5 25.7 0.00 0.03 0.00 85 1013.2
20260510022104 7 89 12.9 20.9 0.00 0.03 0.00 85 1013.2
20260510021604 7 80 11.3 22.5 0.00 0.03 0.00 85 1013.2
20260510021104 7 80 14.5 24.1 0.00 0.03 0.00 86 1013.2
20260510020604 7 65 9.7 19.3 0.00 0.03 0.00 86 1013.2
20260510020104 7 81 11.3 20.9 0.00 0.03 0.00 86 1013.2
20260510015604 7 67 9.7 16.1 0.00 0.03 0.00 86 1013.2
20260510015104 7 86 11.3 19.3 0.00 0.03 0.00 87 1013.2
20260510014604 7 96 12.9 22.5 0.00 0.03 0.00 87 1013.2
20260510014104 7 101 9.7 19.3 0.00 0.03 0.00 87 1013.2
20260510013104 7 98 8.0 12.9 0.00 0.03 0.00 87 1013.2
20260510012604 7 94 8.0 12.9 0.00 0.03 0.00 87 1013.2
20260510011604 7 90 8.0 16.1 0.00 0.03 0.00 87 1013.2
20260510011104 7 88 8.0 12.9 0.00 0.03 0.00 87 1013.2
20260510010604 7 91 9.7 14.5 0.00 0.03 0.00 87 1013.2
20260510010104 7 95 11.3 16.1 0.00 0.03 0.00 87 1013.2
20260510005604 7 91 9.7 12.9 0.00 0.03 0.00 87 1013.2
20260510004604 7 94 8.0 20.9 0.00 0.05 0.00 87 1013.2
20260510003604 7 83 8.0 14.5 0.00 0.13 0.00 86 1013.2
20260510003104 7 86 9.7 19.3 0.00 0.13 0.00 86 1013.2
20260510002604 7 88 9.7 14.5 0.00 0.13 0.00 86 1013.2
20260510002104 7 83 9.7 19.3 0.00 0.13 0.00 86 1013.2
20260510001604 7 88 9.7 14.5 0.00 0.13 0.00 86 1013.2
20260510001104 7 83 8.0 19.3 0.00 0.13 0.00 86 1013.2
20260509235104 7 88 9.7 19.3 0.00 0.13 0.00 86 1013.2
20260509234604 7 83 11.3 16.1 0.00 0.13 0.00 86 1013.2
20260509234104 7 85 11.3 20.9 0.00 0.13 0.00 85 1013.2
20260509233604 7 87 16.1 24.1 0.00 0.13 0.00 85 1013.2
20260509233103 7 85 14.5 22.5 0.00 0.13 0.00 85 1013.2
20260509231605 7 87 16.1 24.1 0.00 0.13 0.00 85 1013.2
20260509230604 7 92 14.5 22.5 0.00 0.13 0.00 86 1013.2
20260509230104 7 85 14.5 24.1 0.00 0.13 0.00 86 1013.2
20260509225604 7 81 17.7 25.7 0.00 0.13 0.13 86 1013.2
20260509225104 7 74 16.1 29.0 0.00 0.13 0.13 86 1013.2
20260509224604 7 80 16.1 27.4 0.00 0.13 0.13 86 1013.2
20260509224104 7 84 19.3 27.4 0.00 0.13 0.13 85 1013.2
20260509223104 8 72 20.9 32.2 0.00 0.13 0.13 86 1013.2
20260509222604 8 84 16.1 25.7 0.00 0.13 0.13 87 1013.2
20260509222104 8 75 16.1 29.0 0.00 0.13 0.13 87 1013.2
20260509221604 8 76 16.1 32.2 0.00 0.13 0.13 87 1013.2
20260509221103 8 86 19.3 35.4 0.00 0.13 0.13 86 1013.2
20260509215604 8 82 20.9 29.0 0.00 0.13 0.13 86 1013.2
20260509214604 8 68 17.7 38.6 0.00 0.13 0.13 85 1013.2
20260509214104 8 75 20.9 32.2 0.00 0.13 0.13 86 1013.2
20260509213604 8 76 14.5 32.2 0.00 0.13 0.13 85 1013.2